Location: Blackie
(50.6050°N, 113.6230°W)
Time: 10:52:09
(UTC+00:00)

N. Korean satellite - Pass Details

Date: 06 December 2021
Orbit: 447 x 490 km, 97.3° (Epoch: 27 January)

Event Time Altitude Azimuth Distance (km) Brightness Sun altitude
Rises 11:44:00 0° 32° (NNE) 2,466 10.6 -33.2°
Reaches altitude 10° 11:47:14 10° 66° (ENE) 1,583 9.9 -32.7°
Maximum altitude 11:48:31 12° 89° (E) 1,476 9.8 -32.5°
Drops below altitude 10° 11:49:48 10° 111° (ESE) 1,577 9.9 -32.3°
Sets 11:52:59 0° 145° (SE) 2,442 10.5 -31.8°
